Time,TemperatureF,DewpointF,PressureIn,WindDirection,WindDirectionDegrees,WindSpeedMPH,WindSpeedGustMPH,Humidity,HourlyPrecipIn,Conditions,Clouds,dailyrainin,SolarRadiationWatts/m^2,SoftwareType,DateUTC
2013-06-27 00:01:00,62.8,62.2,29.86,SSE,159,0.0,0.0,98,0.00,,---,0.75,0.00,VWS V14.01,2013-06-27 04:01:00,
2013-06-27 00:06:00,62.8,62.2,29.86,SSE,159,0.0,0.0,98,0.00,,---,0.00,0.00,VWS V14.01,2013-06-27 04:06:00,
2013-06-27 00:11:00,62.8,62.2,29.85,SSE,159,0.0,0.0,98,0.00,,---,0.00,0.00,VWS V14.01,2013-06-27 04:11:00,
2013-06-27 00:16:00,63.0,62.4,29.85,SSE,159,0.0,0.0,98,0.00,,---,0.00,0.00,VWS V14.01,2013-06-27 04:16:00,
2013-06-27 00:21:00,62.8,62.2,29.85,SSE,159,0.0,0.0,98,0.00,,---,0.00,0.00,VWS V14.01,2013-06-27 04:21:00,
2013-06-27 00:26:00,63.0,62.4,29.85,SSE,159,0.0,0.0,98,0.00,,---,0.00,0.00,VWS V14.01,2013-06-27 04:26:00,
2013-06-27 00:31:00,63.0,62.4,29.85,SSE,159,0.0,0.0,98,0.00,,---,0.00,0.00,VWS V14.01,2013-06-27 04:31:00,
2013-06-27 00:36:00,63.0,62.4,29.85,SSE,159,0.0,0.0,98,0.00,,---,0.00,0.00,VWS V14.01,2013-06-27 04:36:00,
2013-06-27 00:41:00,63.0,62.4,29.85,SSE,159,0.0,0.0,98,0.00,,---,0.00,0.00,VWS V14.01,2013-06-27 04:41:00,
2013-06-27 00:46:00,63.0,62.4,29.84,SSE,159,0.0,0.0,98,0.00,,---,0.00,0.00,VWS V14.01,2013-06-27 04:46:00,
2013-06-27 00:51:00,63.0,62.4,29.85,SSE,159,0.0,0.0,98,0.00,,---,0.00,0.00,VWS V14.01,2013-06-27 04:51:00,
2013-06-27 00:56:00,63.1,62.5,29.85,SSE,159,0.0,0.0,98,0.00,,---,0.00,0.00,VWS V14.01,2013-06-27 04:56:00,
2013-06-27 01:01:00,63.1,62.5,29.85,SSE,159,0.0,0.0,98,0.00,,---,0.00,0.00,VWS V14.01,2013-06-27 05:01:00,
2013-06-27 01:06:00,63.1,62.5,29.85,SSE,159,0.0,0.0,98,0.00,,---,0.00,0.00,VWS V14.01,2013-06-27 05:06:00,
2013-06-27 01:11:00,63.3,62.7,29.85,SSE,159,0.0,0.0,98,0.01,,---,0.01,0.00,VWS V14.01,2013-06-27 05:11:00,
2013-06-27 01:16:00,63.0,62.4,29.85,SSE,159,0.0,0.0,98,0.01,,---,0.01,0.00,VWS V14.01,2013-06-27 05:16:00,
2013-06-27 01:21:00,63.0,62.4,29.85,SSE,159,0.0,0.0,98,0.01,,---,0.01,0.00,VWS V14.01,2013-06-27 05:21:00,
2013-06-27 01:26:00,63.0,62.4,29.85,SSE,159,0.0,0.0,98,0.01,,---,0.01,0.00,VWS V14.01,2013-06-27 05:26:00,
2013-06-27 01:31:00,63.0,62.4,29.84,SSE,159,0.0,0.0,98,0.01,,---,0.01,0.00,VWS V14.01,2013-06-27 05:31:00,
2013-06-27 01:36:00,62.8,62.2,29.85,SSE,159,0.0,0.0,98,0.01,,---,0.01,0.00,VWS V14.01,2013-06-27 05:36:00,
2013-06-27 01:41:00,62.7,62.1,29.85,SSE,159,0.0,0.0,98,0.01,,---,0.01,0.00,VWS V14.01,2013-06-27 05:41:00,
2013-06-27 01:46:00,62.7,62.1,29.85,SSE,159,0.0,0.0,98,0.01,,---,0.01,0.00,VWS V14.01,2013-06-27 05:46:00,
2013-06-27 01:51:00,62.5,61.9,29.85,SSE,159,0.0,0.0,98,0.01,,---,0.01,0.00,VWS V14.01,2013-06-27 05:51:00,
2013-06-27 01:56:00,62.5,61.9,29.85,SSE,159,0.0,0.0,98,0.01,,---,0.01,0.00,VWS V14.01,2013-06-27 05:56:00,
2013-06-27 02:01:00,62.5,61.9,29.85,SSE,159,0.0,0.0,98,0.01,,---,0.01,0.00,VWS V14.01,2013-06-27 06:01:00,
2013-06-27 02:06:00,62.5,61.9,29.85,SSE,159,0.0,0.0,98,0.01,,---,0.01,0.00,VWS V14.01,2013-06-27 06:06:00,
2013-06-27 02:11:00,62.5,61.9,29.85,SSE,159,0.0,0.0,98,0.01,,---,0.01,0.00,VWS V14.01,2013-06-27 06:11:00,
2013-06-27 02:16:00,62.5,61.9,29.85,SSE,159,0.0,0.0,98,0.01,,---,0.01,0.00,VWS V14.01,2013-06-27 06:16:00,
2013-06-27 02:21:00,62.5,61.9,29.85,SSE,159,0.0,0.0,98,0.00,,---,0.01,0.00,VWS V14.01,2013-06-27 06:21:00,
2013-06-27 02:26:00,62.5,61.9,29.85,SSE,159,0.0,0.0,98,0.00,,---,0.01,0.00,VWS V14.01,2013-06-27 06:26:00,
2013-06-27 02:31:00,62.3,61.7,29.85,SSE,159,0.0,0.0,98,0.00,,---,0.01,0.00,VWS V14.01,2013-06-27 06:31:00,
2013-06-27 02:36:00,62.3,61.7,29.84,SSE,159,0.0,0.0,98,0.00,,---,0.01,0.00,VWS V14.01,2013-06-27 06:36:00,
2013-06-27 02:41:00,62.2,61.6,29.85,SSE,159,0.0,0.0,98,0.00,,---,0.01,0.00,VWS V14.01,2013-06-27 06:41:00,
2013-06-27 02:46:00,62.3,61.7,29.84,SSE,159,0.0,0.0,98,0.00,,---,0.01,0.00,VWS V14.01,2013-06-27 06:46:00,
2013-06-27 02:51:00,62.3,61.7,29.84,SSE,159,0.0,0.0,98,0.00,,---,0.01,0.00,VWS V14.01,2013-06-27 06:51:00,
2013-06-27 02:56:00,62.5,61.9,29.84,SSE,159,0.0,0.0,98,0.00,,---,0.01,0.00,VWS V14.01,2013-06-27 06:56:00,
2013-06-27 03:01:00,62.3,61.7,29.84,SSE,159,0.0,0.0,98,0.00,,---,0.01,0.00,VWS V14.01,2013-06-27 07:01:00,
2013-06-27 03:06:00,62.3,61.7,29.84,SSE,159,0.0,0.0,98,0.00,,---,0.01,0.00,VWS V14.01,2013-06-27 07:06:00,
2013-06-27 03:11:00,62.3,61.7,29.84,SSE,159,0.0,0.0,98,0.00,,---,0.01,0.00,VWS V14.01,2013-06-27 07:11:00,
2013-06-27 03:16:00,62.3,61.7,29.84,SSE,159,0.0,0.0,98,0.00,,---,0.01,0.00,VWS V14.01,2013-06-27 07:16:00,
2013-06-27 03:21:00,62.5,61.9,29.84,SSE,159,0.0,0.0,98,0.00,,---,0.01,0.00,VWS V14.01,2013-06-27 07:21:00,
2013-06-27 03:26:00,62.5,61.9,29.83,SSE,159,0.0,0.0,98,0.00,,---,0.01,0.00,VWS V14.01,2013-06-27 07:26:00,
2013-06-27 03:31:00,62.3,61.7,29.83,SSE,159,0.0,0.0,98,0.00,,---,0.01,0.00,VWS V14.01,2013-06-27 07:31:00,
2013-06-27 03:36:00,62.3,61.7,29.82,SSE,159,0.0,0.0,98,0.00,,---,0.01,0.00,VWS V14.01,2013-06-27 07:36:00,
2013-06-27 03:41:00,62.2,61.6,29.83,SSE,159,0.0,0.0,98,0.00,,---,0.01,0.00,VWS V14.01,2013-06-27 07:41:00,
2013-06-27 03:46:00,62.2,61.6,29.83,SSE,159,0.0,0.0,98,0.00,,---,0.01,0.00,VWS V14.01,2013-06-27 07:46:00,
2013-06-27 03:52:00,62.0,61.4,29.83,SSE,159,0.0,0.0,98,0.00,,---,0.01,0.00,VWS V14.01,2013-06-27 07:52:00,
2013-06-27 03:57:00,61.9,61.3,29.83,SSE,159,0.0,0.0,98,0.00,,---,0.01,0.00,VWS V14.01,2013-06-27 07:57:00,
2013-06-27 04:02:00,61.9,61.3,29.83,SSE,159,0.0,0.0,98,0.00,,---,0.01,0.00,VWS V14.01,2013-06-27 08:02:00,
2013-06-27 04:07:00,61.9,61.3,29.82,SSE,159,0.0,0.0,98,0.00,,---,0.01,0.00,VWS V14.01,2013-06-27 08:07:00,
2013-06-27 04:12:00,61.7,61.1,29.83,SSE,159,0.0,0.0,98,0.00,,---,0.01,0.00,VWS V14.01,2013-06-27 08:12:00,
2013-06-27 04:17:00,61.7,61.1,29.83,SSE,159,0.0,0.0,98,0.00,,---,0.01,0.00,VWS V14.01,2013-06-27 08:17:00,
2013-06-27 04:22:00,61.6,61.0,29.83,SSE,159,0.0,0.0,98,0.00,,---,0.01,0.00,VWS V14.01,2013-06-27 08:22:00,
2013-06-27 04:27:00,61.7,61.1,29.83,SSE,159,0.0,0.0,98,0.00,,---,0.01,0.00,VWS V14.01,2013-06-27 08:27:00,
2013-06-27 04:32:00,61.2,60.6,29.83,SSE,159,0.0,0.0,98,0.00,,---,0.01,0.00,VWS V14.01,2013-06-27 08:32:00,
2013-06-27 04:37:00,61.2,60.6,29.83,SSE,159,0.0,0.0,98,0.00,,---,0.01,0.00,VWS V14.01,2013-06-27 08:37:00,
2013-06-27 04:42:00,61.2,60.6,29.83,SSE,159,0.0,0.0,98,0.00,,---,0.01,0.00,VWS V14.01,2013-06-27 08:42:00,
2013-06-27 04:47:00,61.4,60.8,29.84,SSE,159,0.0,0.0,98,0.00,,---,0.01,0.00,VWS V14.01,2013-06-27 08:47:00,
2013-06-27 04:52:00,61.2,60.6,29.84,SSE,159,0.0,0.0,98,0.00,,---,0.01,0.00,VWS V14.01,2013-06-27 08:52:00,
2013-06-27 04:57:00,61.1,60.5,29.83,SSE,159,0.0,0.0,98,0.00,,---,0.01,0.00,VWS V14.01,2013-06-27 08:57:00,
2013-06-27 05:02:00,61.2,60.6,29.84,SSE,159,0.0,0.0,98,0.00,,---,0.01,0.00,VWS V14.01,2013-06-27 09:02:00,
2013-06-27 05:07:00,61.1,60.5,29.84,SSE,159,0.0,0.0,98,0.00,,---,0.01,0.00,VWS V14.01,2013-06-27 09:07:00,
2013-06-27 05:12:00,61.1,60.5,29.84,SSE,159,0.0,0.0,98,0.00,,---,0.01,0.00,VWS V14.01,2013-06-27 09:12:00,
2013-06-27 05:17:00,60.9,60.3,29.84,SSE,159,0.0,0.0,98,0.00,,---,0.01,0.00,VWS V14.01,2013-06-27 09:17:00,
2013-06-27 05:22:00,60.8,60.2,29.84,SSE,159,0.0,0.0,98,0.00,,---,0.01,0.00,VWS V14.01,2013-06-27 09:22:00,
2013-06-27 05:27:00,60.9,60.3,29.84,SSE,159,0.0,0.0,98,0.00,,---,0.01,0.00,VWS V14.01,2013-06-27 09:27:00,
2013-06-27 05:32:00,60.8,60.2,29.84,SSE,159,0.0,0.0,98,0.00,,---,0.01,0.00,VWS V14.01,2013-06-27 09:32:00,
2013-06-27 05:37:00,60.8,60.2,29.84,SSE,159,0.0,0.0,98,0.00,,---,0.01,5.00,VWS V14.01,2013-06-27 09:37:00,
2013-06-27 05:42:00,60.9,60.3,29.85,SSE,159,0.0,0.0,98,0.00,,---,0.01,5.00,VWS V14.01,2013-06-27 09:42:00,
2013-06-27 05:47:00,60.8,60.2,29.85,SSE,159,0.0,0.0,98,0.00,,---,0.01,7.00,VWS V14.01,2013-06-27 09:47:00,
2013-06-27 05:52:00,60.6,60.0,29.85,SSE,159,0.0,0.0,98,0.00,,---,0.01,9.00,VWS V14.01,2013-06-27 09:52:00,
2013-06-27 05:57:00,60.5,59.9,29.85,SSE,159,0.0,0.0,98,0.00,,---,0.01,11.00,VWS V14.01,2013-06-27 09:57:00,
2013-06-27 06:02:00,60.3,59.7,29.86,SSE,159,0.0,0.0,98,0.00,,---,0.01,12.00,VWS V14.01,2013-06-27 10:02:00,
2013-06-27 06:07:00,60.1,59.5,29.86,SSE,159,0.0,0.0,98,0.00,,---,0.01,18.00,VWS V14.01,2013-06-27 10:07:00,
2013-06-27 06:12:00,60.3,59.7,29.86,SSE,159,0.0,0.0,98,0.00,,---,0.01,23.00,VWS V14.01,2013-06-27 10:12:00,
2013-06-27 06:17:00,60.3,59.7,29.86,SSE,159,0.0,0.0,98,0.00,,---,0.01,25.00,VWS V14.01,2013-06-27 10:17:00,
2013-06-27 06:22:00,60.3,59.7,29.86,SSE,159,0.0,0.0,98,0.00,,---,0.01,28.00,VWS V14.01,2013-06-27 10:22:00,
2013-06-27 06:27:00,60.5,59.9,29.86,SSE,159,0.0,0.0,98,0.00,,---,0.01,32.00,VWS V14.01,2013-06-27 10:27:00,
2013-06-27 06:32:00,60.1,59.5,29.86,SSE,159,0.0,0.0,98,0.00,,---,0.01,42.00,VWS V14.01,2013-06-27 10:32:00,
2013-06-27 06:37:00,60.1,59.5,29.85,SSE,159,0.0,0.0,98,0.00,,---,0.01,58.00,VWS V14.01,2013-06-27 10:37:00,
2013-06-27 06:42:00,60.3,59.7,29.85,SSE,159,0.0,0.0,98,0.00,,---,0.01,62.00,VWS V14.01,2013-06-27 10:42:00,
2013-06-27 06:47:00,60.3,59.7,29.85,SSE,159,0.0,0.0,98,0.00,,---,0.01,76.00,VWS V14.01,2013-06-27 10:47:00,
2013-06-27 06:52:00,60.3,59.7,29.85,SSE,159,0.0,0.0,98,0.00,,---,0.01,67.00,VWS V14.01,2013-06-27 10:52:00,
2013-06-27 06:57:00,60.3,59.7,29.85,SSE,159,0.0,0.0,98,0.00,,---,0.01,60.00,VWS V14.01,2013-06-27 10:57:00,
2013-06-27 07:02:00,60.5,59.9,29.85,SSE,159,0.0,0.0,98,0.00,,---,0.01,65.00,VWS V14.01,2013-06-27 11:02:00,
2013-06-27 07:07:00,60.5,59.9,29.85,SSE,159,0.0,0.0,98,0.00,,---,0.01,51.00,VWS V14.01,2013-06-27 11:07:00,
2013-06-27 07:12:00,60.3,59.7,29.86,SSE,159,0.0,0.0,98,0.00,,---,0.01,44.00,VWS V14.01,2013-06-27 11:12:00,
2013-06-27 07:17:00,60.1,59.5,29.86,SSE,159,0.0,0.0,98,0.00,,---,0.01,56.00,VWS V14.01,2013-06-27 11:17:00,
2013-06-27 07:22:00,60.1,59.5,29.86,SSE,159,0.0,0.0,98,0.00,,---,0.01,81.00,VWS V14.01,2013-06-27 11:22:00,
2013-06-27 07:27:00,60.5,59.9,29.86,SSE,159,0.0,0.0,98,0.00,,---,0.01,102.00,VWS V14.01,2013-06-27 11:27:00,
2013-06-27 07:32:00,60.3,59.7,29.86,SSE,159,0.0,0.0,98,0.00,,---,0.01,100.00,VWS V14.01,2013-06-27 11:32:00,
2013-06-27 07:37:00,60.3,59.7,29.85,SSE,159,0.0,0.0,98,0.00,,---,0.01,104.00,VWS V14.01,2013-06-27 11:37:00,
2013-06-27 07:42:00,60.6,60.0,29.85,SSE,159,0.0,0.0,98,0.00,,---,0.01,137.00,VWS V14.01,2013-06-27 11:42:00,
2013-06-27 07:47:00,60.6,60.0,29.85,SSE,159,0.0,0.0,98,0.00,,---,0.01,139.00,VWS V14.01,2013-06-27 11:47:00,
2013-06-27 07:52:00,60.6,60.0,29.86,SSE,159,0.0,0.0,98,0.00,,---,0.01,114.00,VWS V14.01,2013-06-27 11:52:00,
2013-06-27 07:57:00,60.6,60.0,29.85,SSE,159,0.0,0.0,98,0.00,,---,0.01,113.00,VWS V14.01,2013-06-27 11:57:00,
2013-06-27 08:02:00,60.8,60.2,29.86,SSE,159,0.0,0.0,98,0.00,,---,0.01,79.00,VWS V14.01,2013-06-27 12:02:00,
2013-06-27 08:07:00,60.8,60.2,29.86,SSE,159,0.0,0.0,98,0.00,,---,0.01,81.00,VWS V14.01,2013-06-27 12:07:00,
2013-06-27 08:12:00,60.9,60.3,29.86,SSE,159,0.0,0.0,98,0.00,,---,0.01,74.00,VWS V14.01,2013-06-27 12:12:00,
2013-06-27 08:17:00,61.1,60.5,29.86,SSE,159,0.0,0.0,98,0.00,,---,0.01,93.00,VWS V14.01,2013-06-27 12:17:00,
2013-06-27 08:22:00,60.9,60.3,29.86,SSE,159,0.0,0.0,98,0.00,,---,0.01,100.00,VWS V14.01,2013-06-27 12:22:00,
2013-06-27 08:27:00,60.8,60.2,29.86,SSE,159,0.0,0.0,98,0.00,,---,0.01,100.00,VWS V14.01,2013-06-27 12:27:00,
2013-06-27 08:32:00,60.6,60.0,29.86,SSE,159,0.0,0.0,98,0.00,,---,0.01,81.00,VWS V14.01,2013-06-27 12:32:00,
2013-06-27 08:37:00,60.6,60.0,29.86,SSE,159,0.0,0.0,98,0.00,,---,0.01,107.00,VWS V14.01,2013-06-27 12:37:00,
2013-06-27 08:42:00,60.5,59.9,29.86,SSE,159,0.0,0.0,98,0.00,,---,0.01,111.00,VWS V14.01,2013-06-27 12:42:00,
2013-06-27 08:47:00,60.5,59.9,29.86,SSE,159,0.0,0.0,98,0.00,,---,0.01,97.00,VWS V14.01,2013-06-27 12:47:00,
2013-06-27 08:52:00,60.8,60.2,29.86,SSE,159,0.0,0.0,98,0.00,,---,0.01,95.00,VWS V14.01,2013-06-27 12:52:00,
2013-06-27 08:57:00,60.6,60.0,29.86,SSE,159,0.0,0.0,98,0.00,,---,0.01,91.00,VWS V14.01,2013-06-27 12:57:00,
2013-06-27 09:02:00,60.5,59.9,29.86,SSE,159,0.0,0.0,98,0.00,,---,0.01,102.00,VWS V14.01,2013-06-27 13:02:00,
2013-06-27 09:07:00,60.6,60.0,29.86,SSE,159,0.0,0.0,98,0.00,,---,0.01,121.00,VWS V14.01,2013-06-27 13:07:00,
2013-06-27 09:12:00,60.8,60.2,29.86,SSE,159,0.0,0.0,98,0.00,,---,0.01,163.00,VWS V14.01,2013-06-27 13:12:00,
2013-06-27 09:17:00,60.8,60.2,29.86,SSE,159,0.0,0.0,98,0.00,,---,0.01,169.00,VWS V14.01,2013-06-27 13:17:00,
2013-06-27 09:22:00,60.9,60.3,29.86,SSE,159,0.0,0.0,98,0.00,,---,0.01,137.00,VWS V14.01,2013-06-27 13:22:00,
2013-06-27 09:27:00,60.9,60.3,29.86,SSE,159,0.0,0.0,98,0.00,,---,0.01,95.00,VWS V14.01,2013-06-27 13:27:00,
2013-06-27 09:32:00,60.9,60.3,29.86,SSE,159,0.0,0.0,98,0.00,,---,0.01,84.00,VWS V14.01,2013-06-27 13:32:00,
2013-06-27 09:37:00,61.2,60.6,29.85,SSE,159,0.0,0.0,98,0.00,,---,0.01,130.00,VWS V14.01,2013-06-27 13:37:00,
2013-06-27 09:42:00,61.2,60.6,29.85,SSE,159,0.0,0.0,98,0.00,,---,0.01,107.00,VWS V14.01,2013-06-27 13:42:00,
2013-06-27 09:47:00,61.4,60.8,29.86,SSE,159,0.0,0.0,98,0.00,,---,0.01,139.00,VWS V14.01,2013-06-27 13:47:00,
2013-06-27 09:52:00,61.4,60.8,29.85,SSE,159,0.0,0.0,98,0.00,,---,0.01,160.00,VWS V14.01,2013-06-27 13:52:00,
2013-06-27 09:57:00,61.4,60.8,29.86,SSE,159,0.0,0.0,98,0.00,,---,0.01,160.00,VWS V14.01,2013-06-27 13:57:00,
2013-06-27 10:02:00,61.6,61.0,29.85,SSE,159,0.0,0.0,98,0.00,,---,0.01,186.00,VWS V14.01,2013-06-27 14:02:00,
2013-06-27 10:07:00,61.9,61.3,29.85,SSE,159,0.0,0.0,98,0.00,,---,0.01,181.00,VWS V14.01,2013-06-27 14:07:00,
2013-06-27 10:12:00,62.0,61.4,29.85,SSE,159,0.0,0.0,98,0.00,,---,0.01,156.00,VWS V14.01,2013-06-27 14:12:00,
2013-06-27 10:17:00,62.2,61.6,29.85,SSE,159,0.0,0.0,98,0.00,,---,0.01,192.00,VWS V14.01,2013-06-27 14:17:00,
2013-06-27 10:22:00,62.0,61.1,29.85,SSE,159,0.0,0.0,97,0.00,,---,0.01,158.00,VWS V14.01,2013-06-27 14:22:00,
2013-06-27 10:27:00,62.2,61.3,29.85,SSE,159,0.0,0.0,97,0.00,,---,0.01,153.00,VWS V14.01,2013-06-27 14:27:00,
2013-06-27 10:32:00,62.3,61.4,29.85,SSE,159,0.0,0.0,97,0.00,,---,0.01,155.00,VWS V14.01,2013-06-27 14:32:00,
2013-06-27 10:37:00,62.7,61.8,29.85,SSE,159,0.0,0.0,97,0.00,,---,0.01,197.00,VWS V14.01,2013-06-27 14:37:00,
2013-06-27 10:42:00,62.8,61.9,29.85,SSE,159,0.0,0.0,97,0.00,,---,0.01,216.00,VWS V14.01,2013-06-27 14:42:00,
2013-06-27 10:47:00,62.7,61.8,29.85,SSE,159,0.0,0.0,97,0.00,,---,0.01,250.00,VWS V14.01,2013-06-27 14:47:00,
2013-06-27 10:52:00,63.0,62.1,29.85,SSE,159,0.0,0.0,97,0.00,,---,0.01,174.00,VWS V14.01,2013-06-27 14:52:00,
2013-06-27 10:57:00,63.0,62.1,29.85,SSE,159,0.0,0.0,97,0.00,,---,0.01,206.00,VWS V14.01,2013-06-27 14:57:00,
2013-06-27 11:02:00,63.3,62.4,29.86,SSE,159,0.0,0.0,97,0.00,,---,0.01,214.00,VWS V14.01,2013-06-27 15:02:00,
2013-06-27 11:07:00,63.5,62.3,29.85,SSE,159,0.0,0.0,96,0.00,,---,0.01,199.00,VWS V14.01,2013-06-27 15:07:00,
2013-06-27 11:12:00,63.5,62.3,29.85,SSE,159,0.0,0.0,96,0.00,,---,0.01,193.00,VWS V14.01,2013-06-27 15:12:00,
2013-06-27 11:17:00,63.5,62.3,29.85,SSE,159,0.0,0.0,96,0.00,,---,0.01,250.00,VWS V14.01,2013-06-27 15:17:00,
2013-06-27 11:22:00,63.8,62.6,29.85,SSE,159,0.0,0.0,96,0.00,,---,0.01,237.00,VWS V14.01,2013-06-27 15:22:00,
2013-06-27 11:23:00,63.8,62.6,29.85,SSE,159,0.0,0.0,96,0.00,,---,0.01,237.00,VWS V14.01,2013-06-27 15:23:00,
2013-06-27 11:28:00,63.8,62.3,29.85,SSE,159,0.0,0.0,95,0.00,,---,0.01,244.00,VWS V14.01,2013-06-27 15:28:00,
2013-06-27 11:33:00,63.8,62.3,29.85,SSE,159,0.0,0.0,95,0.00,,---,0.01,272.00,VWS V14.01,2013-06-27 15:33:00,
2013-06-27 11:38:00,63.9,62.4,29.85,SSE,159,0.0,0.0,95,0.00,,---,0.01,304.00,VWS V14.01,2013-06-27 15:38:00,
2013-06-27 11:43:00,64.3,62.8,29.85,SSE,159,0.0,0.0,95,0.00,,---,0.01,294.00,VWS V14.01,2013-06-27 15:43:00,
2013-06-27 11:48:00,64.4,62.6,29.85,SE,132,0.0,3.0,94,0.00,,---,0.01,253.00,VWS V14.01,2013-06-27 15:48:00,
2013-06-27 11:53:00,64.8,63.0,29.85,SE,137,0.0,4.0,94,0.00,,---,0.01,200.00,VWS V14.01,2013-06-27 15:53:00,
2013-06-27 11:58:00,64.9,62.8,29.86,SSE,165,0.0,4.0,93,0.00,,---,0.01,223.00,VWS V14.01,2013-06-27 15:58:00,
2013-06-27 12:03:00,64.8,62.7,29.86,SSE,165,0.0,0.0,93,0.00,,---,0.01,236.00,VWS V14.01,2013-06-27 16:03:00,
2013-06-27 12:08:00,65.1,63.0,29.86,SSE,165,0.0,0.0,93,0.00,,---,0.01,211.00,VWS V14.01,2013-06-27 16:08:00,
2013-06-27 12:13:00,65.2,62.8,29.86,SSE,165,0.0,0.0,92,0.00,,---,0.01,227.00,VWS V14.01,2013-06-27 16:13:00,
2013-06-27 12:18:00,65.4,63.0,29.85,SSE,165,0.0,0.0,92,0.00,,---,0.01,265.00,VWS V14.01,2013-06-27 16:18:00,
2013-06-27 12:23:00,65.6,63.2,29.85,SSE,163,0.0,0.0,92,0.00,,---,0.01,255.00,VWS V14.01,2013-06-27 16:23:00,
2013-06-27 12:28:00,65.7,63.3,29.85,SSE,163,0.0,0.0,92,0.00,,---,0.01,257.00,VWS V14.01,2013-06-27 16:28:00,
2013-06-27 12:33:00,65.9,63.5,29.85,SSE,163,0.0,0.0,92,0.00,,---,0.01,276.00,VWS V14.01,2013-06-27 16:33:00,
2013-06-27 12:38:00,66.0,63.6,29.84,SSE,163,1.0,1.0,92,0.00,,---,0.01,288.00,VWS V14.01,2013-06-27 16:38:00,
2013-06-27 12:43:00,65.9,63.2,29.84,SSE,163,0.0,1.0,91,0.00,,---,0.01,315.00,VWS V14.01,2013-06-27 16:43:00,
2013-06-27 12:48:00,66.0,63.3,29.84,SSE,163,0.0,0.0,91,0.00,,---,0.01,323.00,VWS V14.01,2013-06-27 16:48:00,
2013-06-27 12:53:00,66.2,63.2,29.84,SSE,159,0.0,0.0,90,0.00,,---,0.01,322.00,VWS V14.01,2013-06-27 16:53:00,
2013-06-27 12:58:00,66.5,63.8,29.84,SSE,158,0.0,0.0,91,0.00,,---,0.01,200.00,VWS V14.01,2013-06-27 16:58:00,
2013-06-27 13:03:00,66.7,63.7,29.84,SSE,158,0.0,0.0,90,0.00,,---,0.01,209.00,VWS V14.01,2013-06-27 17:03:00,
2013-06-27 13:08:00,66.7,63.7,29.84,SSE,158,0.0,0.0,90,0.00,,---,0.01,223.00,VWS V14.01,2013-06-27 17:08:00,
2013-06-27 13:13:00,67.2,64.2,29.83,SSE,158,0.0,0.0,90,0.00,,---,0.01,253.00,VWS V14.01,2013-06-27 17:13:00,
2013-06-27 13:18:00,67.4,64.4,29.84,SSE,159,1.0,1.0,90,0.00,,---,0.01,236.00,VWS V14.01,2013-06-27 17:18:00,
2013-06-27 13:23:00,67.4,64.1,29.83,SSE,161,0.0,1.0,89,0.00,,---,0.01,181.00,VWS V14.01,2013-06-27 17:23:00,
2013-06-27 13:28:00,67.5,64.2,29.83,SSE,161,0.0,1.0,89,0.00,,---,0.01,258.00,VWS V14.01,2013-06-27 17:28:00,
2013-06-27 13:33:00,67.7,64.0,29.83,SSE,155,0.0,0.0,88,0.00,,---,0.01,213.00,VWS V14.01,2013-06-27 17:33:00,
2013-06-27 13:38:00,67.7,64.0,29.83,ESE,108,0.0,2.0,88,0.00,,---,0.01,221.00,VWS V14.01,2013-06-27 17:38:00,
2013-06-27 13:43:00,67.7,64.0,29.83,ESE,108,0.0,2.0,88,0.00,,---,0.01,227.00,VWS V14.01,2013-06-27 17:43:00,
2013-06-27 13:48:00,67.9,64.5,29.83,ESE,106,0.0,1.0,89,0.00,,---,0.01,272.00,VWS V14.01,2013-06-27 17:48:00,
2013-06-27 13:53:00,67.9,64.2,29.83,East,79,0.0,3.0,88,0.00,,---,0.01,308.00,VWS V14.01,2013-06-27 17:53:00,
2013-06-27 13:58:00,68.0,63.7,29.83,East,88,0.0,3.0,86,0.00,,---,0.01,348.00,VWS V14.01,2013-06-27 17:58:00,
2013-06-27 14:03:00,68.0,63.3,29.83,East,88,0.0,0.0,85,0.00,,---,0.01,302.00,VWS V14.01,2013-06-27 18:03:00,
2013-06-27 14:08:00,68.2,63.5,29.83,East,88,0.0,1.0,85,0.00,,---,0.01,271.00,VWS V14.01,2013-06-27 18:08:00,
2013-06-27 14:13:00,68.5,63.8,29.83,East,88,0.0,1.0,85,0.00,,---,0.01,327.00,VWS V14.01,2013-06-27 18:13:00,
2013-06-27 14:18:00,69.0,64.3,29.83,East,88,0.0,0.0,85,0.00,,---,0.01,320.00,VWS V14.01,2013-06-27 18:18:00,
2013-06-27 14:23:00,69.4,64.7,29.82,ESE,103,2.0,3.0,85,0.00,,---,0.01,258.00,VWS V14.01,2013-06-27 18:23:00,
2013-06-27 14:28:00,69.4,64.7,29.83,SE,135,0.0,3.0,85,0.00,,---,0.01,237.00,VWS V14.01,2013-06-27 18:28:00,
2013-06-27 14:33:00,69.2,64.5,29.83,SE,138,0.0,0.0,85,0.00,,---,0.01,251.00,VWS V14.01,2013-06-27 18:33:00,
2013-06-27 14:38:00,69.2,64.5,29.83,SE,128,0.0,5.0,85,0.00,,---,0.01,199.00,VWS V14.01,2013-06-27 18:38:00,
2013-06-27 14:43:00,69.2,64.5,29.83,SSE,153,0.0,5.0,85,0.00,,---,0.01,218.00,VWS V14.01,2013-06-27 18:43:00,
2013-06-27 14:48:00,69.2,64.5,29.83,East,80,0.0,1.0,85,0.00,,---,0.01,102.00,VWS V14.01,2013-06-27 18:48:00,
2013-06-27 14:53:00,68.9,64.2,29.83,SE,136,0.0,1.0,85,0.00,,---,0.01,130.00,VWS V14.01,2013-06-27 18:53:00,
2013-06-27 14:58:00,68.5,63.8,29.83,SE,137,0.0,1.0,85,0.00,,---,0.01,118.00,VWS V14.01,2013-06-27 18:58:00,
2013-06-27 15:03:00,68.7,64.7,29.83,SE,136,0.0,0.0,87,0.00,,---,0.01,234.00,VWS V14.01,2013-06-27 19:03:00,
2013-06-27 15:08:00,68.9,64.9,29.83,SE,130,0.0,1.0,87,0.00,,---,0.01,221.00,VWS V14.01,2013-06-27 19:08:00,
2013-06-27 15:13:00,68.9,64.9,29.83,SE,130,0.0,1.0,87,0.00,,---,0.01,158.00,VWS V14.01,2013-06-27 19:13:00,
2013-06-27 15:18:00,68.7,64.3,29.82,SSE,157,0.0,0.0,86,0.00,,---,0.01,206.00,VWS V14.01,2013-06-27 19:18:00,
2013-06-27 15:23:00,68.9,64.9,29.82,East,89,0.0,2.0,87,0.00,,---,0.01,207.00,VWS V14.01,2013-06-27 19:23:00,
2013-06-27 15:28:00,68.9,64.6,29.82,East,89,0.0,2.0,86,0.00,,---,0.01,181.00,VWS V14.01,2013-06-27 19:28:00,
2013-06-27 15:33:00,69.2,65.5,29.82,East,88,0.0,0.0,88,0.00,,---,0.01,232.00,VWS V14.01,2013-06-27 19:33:00,
2013-06-27 15:39:00,69.4,65.0,29.81,SE,129,4.0,4.0,86,0.00,,---,0.01,253.00,VWS V14.01,2013-06-27 19:39:00,
2013-06-27 15:44:00,69.4,65.0,29.81,ESE,115,0.0,4.0,86,0.00,,---,0.01,199.00,VWS V14.01,2013-06-27 19:44:00,
2013-06-27 15:49:00,69.4,65.0,29.81,SSE,148,3.0,6.0,86,0.00,,---,0.01,248.00,VWS V14.01,2013-06-27 19:49:00,
2013-06-27 15:54:00,69.2,64.8,29.81,SSE,149,0.0,6.0,86,0.00,,---,0.01,229.00,VWS V14.01,2013-06-27 19:54:00,
2013-06-27 15:59:00,69.4,65.4,29.81,SE,142,0.0,6.0,87,0.00,,---,0.01,200.00,VWS V14.01,2013-06-27 19:59:00,
2013-06-27 16:04:00,69.4,65.4,29.81,South,173,3.0,3.0,87,0.00,,---,0.01,186.00,VWS V14.01,2013-06-27 20:04:00,
2013-06-27 16:09:00,69.4,65.4,29.81,SSE,150,0.0,5.0,87,0.00,,---,0.01,118.00,VWS V14.01,2013-06-27 20:09:00,
2013-06-27 16:14:00,69.0,65.0,29.81,SSE,150,0.0,5.0,87,0.00,,---,0.01,107.00,VWS V14.01,2013-06-27 20:14:00,
2013-06-27 16:19:00,69.0,65.0,29.81,South,171,1.0,4.0,87,0.00,,---,0.01,142.00,VWS V14.01,2013-06-27 20:19:00,
2013-06-27 16:24:00,69.2,65.5,29.81,South,171,4.0,5.0,88,0.00,,---,0.01,246.00,VWS V14.01,2013-06-27 20:24:00,
2013-06-27 16:29:00,69.2,65.2,29.81,SSE,163,5.0,5.0,87,0.00,,---,0.01,193.00,VWS V14.01,2013-06-27 20:29:00,
2013-06-27 16:34:00,69.2,65.2,29.81,East,87,1.0,2.0,87,0.00,,---,0.01,204.00,VWS V14.01,2013-06-27 20:34:00,
2013-06-27 16:39:00,69.4,65.4,29.80,ESE,123,0.0,2.0,87,0.00,,---,0.01,283.00,VWS V14.01,2013-06-27 20:39:00,
2013-06-27 16:44:00,69.4,65.0,29.80,ESE,123,0.0,2.0,86,0.00,,---,0.01,278.00,VWS V14.01,2013-06-27 20:44:00,
2013-06-27 16:49:00,70.0,66.0,29.80,SE,144,2.0,5.0,87,0.00,,---,0.01,260.00,VWS V14.01,2013-06-27 20:49:00,
2013-06-27 16:54:00,69.9,65.2,29.80,SE,144,0.0,5.0,85,0.00,,---,0.01,190.00,VWS V14.01,2013-06-27 20:54:00,
2013-06-27 16:59:00,70.0,65.3,29.79,SE,138,0.0,5.0,85,0.00,,---,0.01,137.00,VWS V14.01,2013-06-27 20:59:00,
2013-06-27 17:04:00,69.9,65.2,29.79,SE,138,0.0,0.0,85,0.00,,---,0.01,139.00,VWS V14.01,2013-06-27 21:04:00,
2013-06-27 17:09:00,69.9,65.2,29.78,SE,138,0.0,0.0,85,0.00,,---,0.01,265.00,VWS V14.01,2013-06-27 21:09:00,
2013-06-27 17:14:00,70.2,65.8,29.79,SE,136,0.0,1.0,86,0.00,,---,0.01,221.00,VWS V14.01,2013-06-27 21:14:00,
2013-06-27 17:19:00,70.4,66.0,29.79,SE,132,0.0,4.0,86,0.00,,---,0.01,158.00,VWS V14.01,2013-06-27 21:19:00,
2013-06-27 17:24:00,70.5,65.8,29.79,SE,134,0.0,4.0,85,0.00,,---,0.01,227.00,VWS V14.01,2013-06-27 21:24:00,
2013-06-27 17:29:00,70.7,66.0,29.78,SE,136,3.0,6.0,85,0.00,,---,0.01,181.00,VWS V14.01,2013-06-27 21:29:00,
2013-06-27 17:34:00,70.5,65.8,29.79,SE,126,0.0,1.0,85,0.00,,---,0.01,91.00,VWS V14.01,2013-06-27 21:34:00,
2013-06-27 17:39:00,70.0,65.3,29.78,SSE,153,3.0,3.0,85,0.00,,---,0.01,95.00,VWS V14.01,2013-06-27 21:39:00,
2013-06-27 17:45:00,69.9,65.2,29.79,SE,146,0.0,3.0,85,0.00,,---,0.01,86.00,VWS V14.01,2013-06-27 21:45:00,
2013-06-27 17:50:00,69.9,65.5,29.79,SE,144,0.0,0.0,86,0.00,,---,0.01,72.00,VWS V14.01,2013-06-27 21:50:00,
2013-06-27 17:55:00,69.7,65.3,29.79,SSE,161,0.0,4.0,86,0.00,,---,0.01,56.00,VWS V14.01,2013-06-27 21:55:00,
2013-06-27 18:00:00,69.5,65.5,29.79,SSE,161,0.0,4.0,87,0.00,,---,0.01,35.00,VWS V14.01,2013-06-27 22:00:00,
2013-06-27 18:05:00,69.4,65.7,29.79,SSE,161,4.0,4.0,88,0.00,,---,0.01,26.00,VWS V14.01,2013-06-27 22:05:00,
2013-06-27 18:11:00,69.2,65.2,29.79,SSE,157,0.0,4.0,87,0.00,,---,0.01,19.00,VWS V14.01,2013-06-27 22:11:00,
2013-06-27 18:16:00,69.0,65.0,29.79,SE,134,0.0,4.0,87,0.00,,---,0.01,33.00,VWS V14.01,2013-06-27 22:16:00,
2013-06-27 18:21:00,68.9,65.2,29.79,ESE,121,0.0,2.0,88,0.00,,---,0.01,25.00,VWS V14.01,2013-06-27 22:21:00,
2013-06-27 18:26:00,68.9,65.5,29.79,SSE,148,0.0,4.0,89,0.00,,---,0.01,33.00,VWS V14.01,2013-06-27 22:26:00,
2013-06-27 18:31:00,68.5,65.1,29.79,SE,144,0.0,4.0,89,0.00,,---,0.01,30.00,VWS V14.01,2013-06-27 22:31:00,
2013-06-27 18:36:00,68.4,65.0,29.79,SSE,151,1.0,5.0,89,0.00,,---,0.01,21.00,VWS V14.01,2013-06-27 22:36:00,
2013-06-27 18:41:00,68.2,64.8,29.80,South,190,0.0,5.0,89,0.00,,---,0.01,16.00,VWS V14.01,2013-06-27 22:41:00,
2013-06-27 18:46:00,68.0,64.6,29.80,South,189,0.0,5.0,89,0.00,,---,0.01,16.00,VWS V14.01,2013-06-27 22:46:00,
2013-06-27 18:51:00,68.0,65.0,29.80,SE,136,1.0,2.0,90,0.00,,---,0.01,18.00,VWS V14.01,2013-06-27 22:51:00,
2013-06-27 18:56:00,67.9,64.9,29.80,SE,137,0.0,4.0,90,0.00,,---,0.01,14.00,VWS V14.01,2013-06-27 22:56:00,
2013-06-27 19:01:00,67.7,64.7,29.80,SE,134,0.0,4.0,90,0.00,,---,0.01,12.00,VWS V14.01,2013-06-27 23:01:00,
2013-06-27 19:06:00,67.5,64.5,29.80,SE,133,0.0,0.0,90,0.00,,---,0.01,12.00,VWS V14.01,2013-06-27 23:06:00,
2013-06-27 19:12:00,67.4,64.7,29.80,SE,128,0.0,4.0,91,0.00,,---,0.01,9.00,VWS V14.01,2013-06-27 23:12:00,
2013-06-27 19:16:00,67.4,64.7,29.80,SE,128,0.0,4.0,91,0.00,,---,0.01,11.00,VWS V14.01,2013-06-27 23:16:00,
2013-06-27 19:22:00,67.2,64.5,29.79,SE,143,3.0,3.0,91,0.00,,---,0.01,9.00,VWS V14.01,2013-06-27 23:22:00,
2013-06-27 19:27:00,67.0,64.3,29.79,East,96,0.0,3.0,91,0.00,,---,0.01,11.00,VWS V14.01,2013-06-27 23:27:00,
2013-06-27 19:32:00,67.0,64.3,29.79,ESE,112,0.0,0.0,91,0.00,,---,0.01,7.00,VWS V14.01,2013-06-27 23:32:00,
2013-06-27 19:37:00,67.0,64.3,29.79,ESE,112,0.0,0.0,91,0.00,,---,0.01,9.00,VWS V14.01,2013-06-27 23:37:00,
2013-06-27 19:42:00,66.9,64.2,29.80,SSE,148,0.0,5.0,91,0.00,,---,0.01,7.00,VWS V14.01,2013-06-27 23:42:00,
2013-06-27 19:47:00,66.7,64.0,29.80,SE,138,0.0,0.0,91,0.00,,---,0.01,7.00,VWS V14.01,2013-06-27 23:47:00,
2013-06-27 19:52:00,66.7,64.3,29.80,SE,138,0.0,0.0,92,0.00,,---,0.01,5.00,VWS V14.01,2013-06-27 23:52:00,
2013-06-27 19:58:00,66.7,64.3,29.80,SSE,147,0.0,1.0,92,0.00,,---,0.01,5.00,VWS V14.01,2013-06-27 23:58:00,
2013-06-27 20:03:00,66.5,64.1,29.80,ESE,102,2.0,2.0,92,0.00,,---,0.01,0.00,VWS V14.01,2013-06-28 00:03:00,
2013-06-27 20:08:00,66.4,64.0,29.80,East,89,2.0,3.0,92,0.00,,---,0.01,0.00,VWS V14.01,2013-06-28 00:08:00,
2013-06-27 20:13:00,66.2,64.1,29.80,East,101,0.0,3.0,93,0.00,,---,0.01,0.00,VWS V14.01,2013-06-28 00:13:00,
2013-06-27 20:18:00,66.2,64.1,29.80,SSE,153,0.0,3.0,93,0.00,,---,0.01,0.00,VWS V14.01,2013-06-28 00:18:00,
2013-06-27 20:23:00,66.0,63.9,29.80,SE,139,0.0,3.0,93,0.00,,---,0.01,0.00,VWS V14.01,2013-06-28 00:23:00,
2013-06-27 20:28:00,66.0,63.9,29.80,East,94,2.0,4.0,93,0.00,,---,0.01,0.00,VWS V14.01,2013-06-28 00:28:00,
2013-06-27 20:33:00,65.9,63.8,29.79,SSE,163,0.0,4.0,93,0.00,,---,0.01,0.00,VWS V14.01,2013-06-28 00:33:00,
2013-06-27 20:38:00,65.7,63.9,29.80,SSE,159,1.0,4.0,94,0.00,,---,0.01,0.00,VWS V14.01,2013-06-28 00:38:00,
2013-06-27 20:43:00,65.6,63.8,29.80,SE,141,0.0,5.0,94,0.00,,---,0.01,0.00,VWS V14.01,2013-06-28 00:43:00,
2013-06-27 20:48:00,65.6,63.8,29.80,SE,141,0.0,1.0,94,0.00,,---,0.01,0.00,VWS V14.01,2013-06-28 00:48:00,
2013-06-27 20:54:00,65.4,63.6,29.80,ESE,109,0.0,5.0,94,0.00,,---,0.01,0.00,VWS V14.01,2013-06-28 00:54:00,
2013-06-27 20:59:00,65.2,63.4,29.80,SE,132,2.0,6.0,94,0.00,,---,0.01,0.00,VWS V14.01,2013-06-28 00:59:00,
2013-06-27 21:04:00,65.2,63.4,29.81,SSE,147,3.0,3.0,94,0.00,,---,0.01,0.00,VWS V14.01,2013-06-28 01:04:00,
2013-06-27 21:09:00,65.1,63.3,29.81,ENE,68,0.0,4.0,94,0.00,,---,0.01,0.00,VWS V14.01,2013-06-28 01:09:00,
2013-06-27 21:14:00,65.1,63.6,29.81,ESE,114,0.0,4.0,95,0.00,,---,0.01,0.00,VWS V14.01,2013-06-28 01:14:00,
2013-06-27 21:19:00,64.9,63.4,29.81,SSE,162,2.0,3.0,95,0.00,,---,0.01,0.00,VWS V14.01,2013-06-28 01:19:00,
2013-06-27 21:24:00,64.8,63.3,29.81,SE,142,3.0,3.0,95,0.00,,---,0.01,0.00,VWS V14.01,2013-06-28 01:24:00,
2013-06-27 21:30:00,64.4,62.9,29.81,SE,135,5.0,5.0,95,0.00,,---,0.01,0.00,VWS V14.01,2013-06-28 01:30:00,
2013-06-27 21:35:00,64.4,62.9,29.82,South,172,1.0,2.0,95,0.00,,---,0.01,0.00,VWS V14.01,2013-06-28 01:35:00,
2013-06-27 21:40:00,64.1,62.6,29.82,East,87,0.0,3.0,95,0.00,,---,0.01,0.00,VWS V14.01,2013-06-28 01:40:00,
2013-06-27 21:45:00,63.9,62.4,29.82,East,100,0.0,3.0,95,0.00,,---,0.01,0.00,VWS V14.01,2013-06-28 01:45:00,
2013-06-27 21:50:00,63.9,62.4,29.82,ESE,103,2.0,2.0,95,0.00,,---,0.01,0.00,VWS V14.01,2013-06-28 01:50:00,
2013-06-27 21:56:00,63.8,62.3,29.82,SSE,155,0.0,6.0,95,0.00,,---,0.01,0.00,VWS V14.01,2013-06-28 01:56:00,
2013-06-27 22:01:00,63.6,62.2,29.81,ENE,77,0.0,6.0,95,0.00,,---,0.01,0.00,VWS V14.01,2013-06-28 02:01:00,
2013-06-27 22:06:00,63.6,62.2,29.81,East,83,0.0,1.0,95,0.00,,---,0.01,0.00,VWS V14.01,2013-06-28 02:06:00,
2013-06-27 22:11:00,63.5,62.0,29.81,SE,137,0.0,4.0,95,0.00,,---,0.01,0.00,VWS V14.01,2013-06-28 02:11:00,
2013-06-27 22:16:00,63.1,61.7,29.81,SE,137,0.0,4.0,95,0.00,,---,0.01,0.00,VWS V14.01,2013-06-28 02:16:00,
2013-06-27 22:21:00,63.3,61.8,29.81,SE,137,0.0,0.0,95,0.00,,---,0.01,0.00,VWS V14.01,2013-06-28 02:21:00,
2013-06-27 22:26:00,63.1,61.7,29.81,SE,137,0.0,0.0,95,0.00,,---,0.01,0.00,VWS V14.01,2013-06-28 02:26:00,
2013-06-27 22:31:00,63.1,61.7,29.80,SE,137,0.0,0.0,95,0.00,,---,0.01,0.00,VWS V14.01,2013-06-28 02:31:00,
2013-06-27 22:37:00,63.0,61.5,29.81,SE,137,0.0,0.0,95,0.00,,---,0.01,0.00,VWS V14.01,2013-06-28 02:37:00,
2013-06-27 22:42:00,63.0,61.2,29.81,SE,137,0.0,0.0,94,0.00,,---,0.01,0.00,VWS V14.01,2013-06-28 02:42:00,
2013-06-27 22:47:00,63.0,61.2,29.81,SE,137,0.0,0.0,94,0.00,,---,0.01,0.00,VWS V14.01,2013-06-28 02:47:00,
2013-06-27 22:52:00,63.0,61.2,29.80,SE,137,0.0,0.0,94,0.00,,---,0.01,0.00,VWS V14.01,2013-06-28 02:52:00,
2013-06-27 22:57:00,62.8,61.0,29.80,SE,137,0.0,0.0,94,0.00,,---,0.01,0.00,VWS V14.01,2013-06-28 02:57:00,
2013-06-27 23:02:00,62.8,61.0,29.80,SE,137,0.0,0.0,94,0.00,,---,0.01,0.00,VWS V14.01,2013-06-28 03:02:00,
2013-06-27 23:07:00,62.8,61.0,29.80,SE,137,0.0,0.0,94,0.00,,---,0.01,0.00,VWS V14.01,2013-06-28 03:07:00,
2013-06-27 23:12:00,62.7,61.0,29.80,SE,137,0.0,0.0,94,0.00,,---,0.01,0.00,VWS V14.01,2013-06-28 03:12:00,
2013-06-27 23:17:00,62.7,61.0,29.80,SE,137,0.0,0.0,94,0.00,,---,0.01,0.00,VWS V14.01,2013-06-28 03:17:00,
2013-06-27 23:22:00,62.3,60.2,29.79,SE,137,0.0,0.0,93,0.00,,---,0.01,0.00,VWS V14.01,2013-06-28 03:22:00,
2013-06-27 23:27:00,62.2,60.2,29.79,SE,137,0.0,0.0,93,0.00,,---,0.01,0.00,VWS V14.01,2013-06-28 03:27:00,
2013-06-27 23:33:00,62.0,59.7,29.79,SE,137,0.0,0.0,92,0.00,,---,0.01,0.00,VWS V14.01,2013-06-28 03:33:00,
2013-06-27 23:38:00,62.0,59.7,29.79,SE,137,0.0,0.0,92,0.00,,---,0.01,0.00,VWS V14.01,2013-06-28 03:38:00,
2013-06-27 23:43:00,62.0,59.7,29.79,SE,137,0.0,0.0,92,0.00,,---,0.01,0.00,VWS V14.01,2013-06-28 03:43:00,
2013-06-27 23:48:00,61.9,59.5,29.79,SE,137,0.0,0.0,92,0.01,,---,0.02,0.00,VWS V14.01,2013-06-28 03:48:00,
2013-06-27 23:53:00,61.7,59.4,29.79,SE,137,0.0,0.0,92,0.01,,---,0.02,0.00,VWS V14.01,2013-06-28 03:53:00,
2013-06-27 23:58:00,61.6,59.6,29.79,SE,137,0.0,0.0,93,0.02,,---,0.03,0.00,VWS V14.01,2013-06-28 03:58:00,